[[{"header":{"parameterUnit":"m.s-1","parameterCategory":1,"la1":30.2991,"la2":30.254,"lo1":-89.0895,"lo2":-89.0444,"dy":0.0017,"dx":0.0017,"nx":28,"ny":28,"refTime":"2025-01-05T09:00:00:Z","depth":0,"parameterNumber":2,"parameterNumberName":"U-component_of_WINDS"},"data":[0,0,0,0,0,0,0,0,0,0,0,0,0,0,0,0,0,0,0,0,0,0,0,0,0,0,0,0,0,0,0,0,0,0,0,0,0,0,0,0,0,0,0,0,0,0,0,0,0,0,0,0,0,0,0,0,0,0,4.3605,4.3606,0,4.3656,4.3657,4.3658,4.3616,4.3614,4.3612,4.3611,4.3662,4.3665,4.3668,0,0,0,0,0,0,0,0,0,0,0,0,0,4.3473,4.3476,4.3605,4.3606,4.3607,4.3656,4.3657,4.3658,4.3616,4.3614,4.3612,4.361,4.3661,4.3665,4.3668,0,0,0,0,0,0,0,0,0,0,0,0,0,4.3528,4.3477,4.3605,4.3592,4.3591,4.3656,4.3657,4.3658,4.3617,4.3614,4.3611,4.3609,4.366,4.3664,4.3669,4.3749,0,0,4.3683,4.3685,0,0,0,0,0,0,0,0,4.3525,4.3533,4.3593,4.3593,4.3592,4.3627,4.3629,4.3689,4.3617,4.3607,4.3611,4.3608,4.3653,4.3658,4.3673,4.3752,4.3754,4.3683,4.3686,4.3688,4.3689,0,0,0,0,0,0,0,4.3521,4.3531,4.3625,4.3594,4.3594,4.3584,4.3589,4.364,4.3644,4.3608,4.3605,4.3611,4.3652,4.3669,4.3674,4.3755,4.3683,4.3687,4.369,4.3692,4.3905,4.3908,0,0,0,0,0,0,4.3519,4.3528,4.3624,4.3627,4.3552,4.3588,4.3594,4.3619,4.3643,4.3644,4.3614,4.3609,4.3662,4.3669,4.3675,4.3773,4.3688,4.3692,4.3695,4.3902,4.3906,4.3909,0,0,0,0,0,0,4.3516,4.3528,4.3622,4.3577,4.3588,4.3593,4.3622,4.3621,4.3638,4.3648,4.3648,4.363,4.366,4.3669,4.3732,4.3774,4.3694,4.3698,4.3899,4.3903,4.3907,4.3968,0,0,0,0,0,0,4.3512,4.3527,4.3557,4.3578,4.359,4.3677,4.3624,4.3624,4.3646,4.364,4.3663,4.3664,4.3659,4.3726,4.3737,4.3779,4.3702,4.3895,4.3901,4.3906,4.3962,4.3974,4.3984,0,0,0,0,0,4.3508,4.3571,4.3559,4.3571,4.3628,4.368,4.3687,4.368,4.3649,4.368,4.3687,4.3664,4.3768,4.3732,4.3744,4.3789,4.3892,4.3899,4.3906,4.3957,4.3971,4.3983,0,0,0,0,0,0,4.3555,4.3574,4.356,4.3632,4.3655,4.3673,4.3711,4.3695,4.3726,4.372,4.3709,4.3715,4.3781,4.3791,4.3751,4.3869,4.3825,4.3835,4.386,4.3874,4.3885,4.3881,4.3705,0,0,0,0,0,4.3574,4.3614,4.3628,4.369,4.3703,4.3705,4.3727,4.372,4.3743,4.3752,4.3763,4.3786,4.3825,4.385,4.3885,4.3963,4.3969,4.4,4.4011,4.402,4.4028,4.4072,4.4087,4.3931,4.3931,4.3931,0,0,4.3613,4.3628,4.3654,4.37,4.3717,4.376,4.3713,4.3759,4.3791,4.3759,4.3819,4.3829,4.3854,4.3926,4.3958,4.3936,4.4073,4.4028,4.4035,4.4039,4.4081,4.4095,4.4109,4.3935,4.3935,4.3934,0,0,4.3706,4.3721,4.3776,4.3794,4.382,4.3822,4.3835,4.3856,4.3862,4.3922,4.39,4.3937,4.4003,4.4022,4.4041,4.4145,4.4125,4.4157,4.4213,4.4256,4.4269,4.428,4.4318,4.4332,4.4165,4.4165,4.4165,0,4.3751,4.3814,4.3806,4.3855,4.3876,4.385,4.3906,4.3924,4.396,4.3976,4.3952,4.4035,4.405,4.4127,4.4152,4.4168,4.4184,4.4154,4.4268,4.4278,4.4288,4.4325,4.4339,4.4169,4.4168,4.4168,4.4168,0,4.3869,4.3913,4.3954,4.3991,4.4018,4.407,4.407,4.4098,4.4089,4.4094,4.4157,4.4175,4.4214,4.4232,4.4223,4.4308,4.4294,4.4269,4.4224,4.4307,4.4341,4.4355,4.4174,4.4173,4.4172,4.4171,0,0,4.3992,4.4026,4.4041,4.4058,4.4087,4.4121,4.4172,4.4212,4.4237,4.4263,4.4307,4.4365,4.4342,4.4363,4.4357,4.4394,4.4478,4.4365,4.4365,4.4386,4.4575,4.4594,4.461,4.4465,4.4468,4.447,4.4573,0,4.4087,4.4177,4.4172,4.4257,4.4299,4.4276,4.4321,4.4344,4.435,4.4387,4.4394,4.4435,4.4402,4.4415,4.4451,4.446,4.4516,4.4452,4.4507,4.4509,4.4501,4.4628,4.4648,4.4744,4.4586,4.4588,4.459,0,4.421,4.4242,4.4331,4.4356,4.4373,4.4414,4.4451,4.4486,4.4512,4.4514,4.4539,4.4527,4.4581,4.4535,4.4609,4.4567,4.4589,4.4597,4.46,4.4605,4.4554,4.4637,4.4775,4.4789,4.4611,4.4609,4.4608,0,4.4292,4.4358,4.442,4.4436,4.4465,4.4495,4.4508,4.4532,4.4557,4.4589,4.4605,4.4644,4.4665,4.4695,4.4694,4.4661,4.477,4.4724,4.4774,4.4774,4.4798,4.4796,4.4942,4.4811,4.4811,4.4811,4.4811,0,4.4399,4.4455,4.4458,4.4496,4.4558,4.4553,4.4615,4.4626,4.4647,4.4688,4.467,4.4709,4.4705,4.4745,4.4744,4.4807,4.4816,4.482,4.482,4.4822,4.4822,4.4836,4.483,4.4815,4.4814,4.4813,4.4812,0,4.4501,4.4505,4.4572,4.4595,4.4602,4.4647,4.4668,4.4705,4.471,4.4762,4.4774,4.4783,4.4829,4.4831,4.4883,4.4883,4.496,4.4951,4.4951,4.495,4.5,4.4996,4.516,4.5182,4.5037,4.5039,4.504,0,4.4569,4.4612,4.464,4.4667,4.4683,4.4725,4.4751,4.4748,4.4775,4.481,4.4843,4.4887,4.4923,4.4997,4.5008,4.5049,4.5042,4.5097,4.5048,4.505,4.5044,4.5042,4.5047,4.5106,4.5108,4.5109,4.511,0,4.4691,4.4691,4.4729,4.4769,4.48,4.4831,4.4859,4.4882,4.4882,4.4915,4.4962,4.4989,4.5044,4.5088,4.5128,4.5143,4.5128,4.5126,4.514,4.5143,4.5142,4.5144,4.4978,4.5122,4.5121,4.512,4.5119,4.5119,4.4779,4.4816,4.4843,4.4886,4.4908,4.4935,4.4972,4.4983,4.5022,4.5067,4.5063,4.5115,4.5142,4.5195,4.5213,4.5255,4.5236,4.5256,4.5261,4.5266,4.5272,4.5135,4.5262,4.5261,4.5261,4.5261,4.5261,0,4.49,4.4916,4.4956,4.4998,4.5033,4.5015,4.5047,4.5077,4.5124,4.515,4.5186,4.5241,4.5285,4.5301,4.5344,4.5374,4.5369,4.5386,4.5384,4.5388,4.5285,4.527,4.539,4.539,4.539,4.539,4.539,4.539,4.4967,4.5031,4.5035,4.5109,4.5125,4.5177,4.5197,4.5223,4.5244,4.5307,4.5343,4.5354,4.5377,4.5422,4.5462,4.5465,4.5482,4.5503,4.5504,4.5408,4.5395,4.5382,4.5367,4.5507,4.5507,4.5603,4.5604,4.5604]},{"header":{"parameterUnit":"m.s-1","parameterCategory":1,"la1":30.2991,"la2":30.254,"lo1":-89.0895,"lo2":-89.0444,"dy":0.0017,"dx":0.0017,"nx":28,"ny":28,"refTime":"2025-01-05T09:00:00:Z","depth":0,"parameterNumber":3,"parameterNumberName":"V-component_of_WINDS"},"data":[0,0,0,0,0,0,0,0,0,0,0,0,0,0,0,0,0,0,0,0,0,0,0,0,0,0,0,0,0,0,0,0,0,0,0,0,0,0,0,0,0,0,0,0,0,0,0,0,0,0,0,0,0,0,0,0,0,0,-7.4545,-7.4547,0,-7.4722,-7.4724,-7.4726,-7.473,-7.4728,-7.4726,-7.4724,-7.49,-7.4907,-7.4913,0,0,0,0,0,0,0,0,0,0,0,0,0,-7.4208,-7.4214,-7.4545,-7.4547,-7.4549,-7.4722,-7.4724,-7.4727,-7.4731,-7.4728,-7.4726,-7.4723,-7.4898,-7.4906,-7.4914,0,0,0,0,0,0,0,0,0,0,0,0,0,-7.4366,-7.4216,-7.4545,-7.4572,-7.4577,-7.4721,-7.4724,-7.4727,-7.4731,-7.4728,-7.4725,-7.4722,-7.4895,-7.4905,-7.4915,-7.5042,0,0,-7.4946,-7.495,0,0,0,0,0,0,0,0,-7.4357,-7.4379,-7.4566,-7.4571,-7.4576,-7.4701,-7.467,-7.4833,-7.4732,-7.4673,-7.4724,-7.472,-7.4836,-7.4851,-7.4891,-7.505,-7.5058,-7.4947,-7.4953,-7.4957,-7.496,0,0,0,0,0,0,0,-7.4346,-7.4371,-7.4615,-7.4569,-7.4575,-7.4575,-7.4594,-7.4701,-7.477,-7.4677,-7.4678,-7.4699,-7.4838,-7.4881,-7.4895,-7.506,-7.4946,-7.4955,-7.4961,-7.4965,-7.5335,-7.5339,0,0,0,0,0,0,-7.433,-7.4362,-7.4609,-7.462,-7.4457,-7.4584,-7.4605,-7.4664,-7.4769,-7.4782,-7.4702,-7.4699,-7.4866,-7.4883,-7.4901,-7.5059,-7.4957,-7.4966,-7.4972,-7.5332,-7.5336,-7.534,0,0,0,0,0,0,-7.4323,-7.4352,-7.4602,-7.4492,-7.4523,-7.4593,-7.4659,-7.4669,-7.4712,-7.4788,-7.48,-7.4734,-7.4864,-7.4887,-7.5008,-7.5065,-7.4971,-7.498,-7.5327,-7.5333,-7.5338,-7.5373,0,0,0,0,0,0,-7.4314,-7.435,-7.4399,-7.4493,-7.4529,-7.4707,-7.4663,-7.4675,-7.473,-7.4728,-7.4821,-7.4833,-7.4863,-7.4993,-7.5018,-7.5077,-7.4988,-7.5322,-7.533,-7.5336,-7.5368,-7.538,-7.539,0,0,0,0,0,-7.4301,-7.44,-7.4402,-7.4432,-7.4593,-7.471,-7.4731,-7.4765,-7.4735,-7.4785,-7.4834,-7.483,-7.5055,-7.5005,-7.5033,-7.5096,-7.5319,-7.5328,-7.5336,-7.5362,-7.5377,-7.539,0,0,0,0,0,0,-7.4309,-7.4413,-7.4416,-7.4548,-7.4621,-7.471,-7.4775,-7.4779,-7.4861,-7.4855,-7.4893,-7.4914,-7.5034,-7.5077,-7.502,-7.5226,-7.5183,-7.5198,-7.5194,-7.5208,-7.5219,-7.5206,-7.4996,0,0,0,0,0,-7.4327,-7.4415,-7.45,-7.4609,-7.4645,-7.4704,-7.4756,-7.4777,-7.4853,-7.4883,-7.494,-7.5013,-7.51,-7.5156,-7.5241,-7.5374,-7.5395,-7.5431,-7.5442,-7.5451,-7.5463,-7.5539,-7.5557,-7.5368,-7.5368,-7.5368,0,0,-7.4363,-7.4431,-7.4483,-7.4612,-7.4671,-7.476,-7.4729,-7.4825,-7.4891,-7.4896,-7.5015,-7.506,-7.5143,-7.5272,-7.5331,-7.5311,-7.552,-7.5462,-7.5469,-7.5476,-7.555,-7.5567,-7.5583,-7.5374,-7.5373,-7.5372,0,0,-7.4476,-7.4535,-7.4634,-7.4694,-7.4784,-7.4823,-7.4847,-7.4937,-7.4968,-7.5088,-7.5094,-7.5174,-7.5323,-7.5383,-7.5433,-7.5571,-7.5571,-7.5598,-7.5656,-7.573,-7.5744,-7.5758,-7.5808,-7.5826,-7.5609,-7.561,-7.561,0,-7.4509,-7.4646,-7.4683,-7.478,-7.4837,-7.4848,-7.4948,-7.5004,-7.5116,-7.5155,-7.5132,-7.5321,-7.5378,-7.5522,-7.5556,-7.5595,-7.5624,-7.5587,-7.574,-7.5753,-7.5766,-7.5815,-7.5834,-7.5612,-7.5612,-7.5612,-7.5611,0,-7.4683,-7.4778,-7.4846,-7.4957,-7.5022,-7.5119,-7.5171,-7.5232,-7.5247,-7.5289,-7.5411,-7.5481,-7.558,-7.5616,-7.5631,-7.5762,-7.5748,-7.5732,-7.5689,-7.5787,-7.5833,-7.5852,-7.5616,-7.5615,-7.5614,-7.5614,0,0,-7.4803,-7.4937,-7.4961,-7.5013,-7.5114,-7.5188,-7.5286,-7.5386,-7.5438,-7.5516,-7.5599,-7.5727,-7.5714,-7.5771,-7.5793,-7.5857,-7.5965,-7.5834,-7.5836,-7.5857,-7.6116,-7.6127,-7.6148,-7.5965,-7.5969,-7.5972,-7.6109,0,-7.4927,-7.5105,-7.5143,-7.5296,-7.5385,-7.5398,-7.5484,-7.5556,-7.5597,-7.5678,-7.5723,-7.5814,-7.5789,-7.5824,-7.5888,-7.5938,-7.6017,-7.5929,-7.6043,-7.6047,-7.6023,-7.6173,-7.6185,-7.6311,-7.6127,-7.613,-7.6133,0,-7.5096,-7.5181,-7.5343,-7.5436,-7.5474,-7.5551,-7.5647,-7.5724,-7.5806,-7.5832,-7.5897,-7.5913,-7.6016,-7.5969,-7.6112,-7.6051,-7.61,-7.6132,-7.6138,-7.615,-7.6096,-7.6189,-7.6351,-7.637,-7.6161,-7.6159,-7.6157,0,-7.5169,-7.5323,-7.5442,-7.5485,-7.5596,-7.565,-7.5698,-7.5777,-7.5835,-7.5918,-7.5957,-7.605,-7.6101,-7.6173,-7.6214,-7.6176,-7.6354,-7.631,-7.6378,-7.6378,-7.6415,-7.6412,-7.6588,-7.6446,-7.6446,-7.6445,-7.6445,0,-7.5304,-7.5403,-7.5476,-7.5549,-7.5661,-7.5703,-7.5813,-7.586,-7.5931,-7.6013,-7.6029,-7.6105,-7.6155,-7.6238,-7.627,-7.6384,-7.6407,-7.643,-7.6438,-7.643,-7.6427,-7.6462,-7.6455,-7.645,-7.6449,-7.6448,-7.6447,0,-7.5404,-7.5457,-7.5587,-7.5683,-7.5709,-7.5787,-7.5868,-7.5939,-7.5982,-7.6086,-7.6112,-7.6179,-7.6278,-7.6327,-7.6448,-7.6471,-7.66,-7.6601,-7.6573,-7.6576,-7.6642,-7.6636,-7.6848,-7.6878,-7.6715,-7.6717,-7.6718,0,-7.5487,-7.5564,-7.5669,-7.5726,-7.5777,-7.5868,-7.5929,-7.5974,-7.6036,-7.6137,-7.6196,-7.6296,-7.6379,-7.6537,-7.6595,-7.6689,-7.6694,-7.6762,-7.6708,-7.6698,-7.6696,-7.6691,-7.67,-7.6771,-7.6772,-7.6774,-7.6775,0,-7.5629,-7.5652,-7.574,-7.5839,-7.5911,-7.599,-7.6067,-7.6113,-7.617,-7.624,-7.6343,-7.6407,-7.6534,-7.6633,-7.6732,-7.6781,-7.6788,-7.6792,-7.6813,-7.6805,-7.6786,-7.6798,-7.66,-7.6786,-7.6785,-7.6784,-7.6784,-7.6783,-7.5724,-7.5794,-7.588,-7.5978,-7.6042,-7.6114,-7.6187,-7.624,-7.6327,-7.6436,-7.6457,-7.6566,-7.6647,-7.6781,-7.6834,-7.6919,-7.6904,-7.6934,-7.6942,-7.6949,-7.6953,-7.6772,-7.6937,-7.6937,-7.6937,-7.6937,-7.6936,0,-7.5868,-7.5925,-7.6014,-7.6124,-7.6201,-7.6204,-7.629,-7.6354,-7.6451,-7.6527,-7.661,-7.6729,-7.6826,-7.6894,-7.6993,-7.7049,-7.7055,-7.7073,-7.707,-7.7081,-7.696,-7.6933,-7.7067,-7.7067,-7.7067,-7.7067,-7.7067,-7.7067,-7.5952,-7.6072,-7.6105,-7.6257,-7.6313,-7.6422,-7.6471,-7.6539,-7.66,-7.6734,-7.6816,-7.686,-7.6933,-7.7038,-7.7128,-7.7145,-7.7181,-7.72,-7.7217,-7.7103,-7.7089,-7.7076,-7.7051,-7.7208,-7.7208,-7.7331,-7.7333,-7.7333]}]]